Regional Weather Roundup
Issued by NWS

Home | Current Version | Previous Version | Text Only | Print | Product List | Glossary Off
Versions: 1 2 3 4 5 6 7 8 9 10 11 12 13 14 15 16 17 18 19 20 21 22 23 24 25 26 27 28 29 30 31 32 33 34 35 36 37 38 39 40 41 42 43 44 45 46 47 48 49 50

000
ASUS43 KMKX 191521
RWRWI

WISCONSIN REGIONAL WEATHER ROUNDUP
NATIONAL WEATHER SERVICE MILWAUKEE/SULLIVAN WI
900 AM CST FRI DEC 19 2014

NOTE: "FAIR" INDICATES FEW OR NO CLOUDS BELOW 12,000 FEET WITH NO
SIGNIFICANT WEATHER AND/OR OBSTRUCTIONS TO VISIBILITY.

WIZ001-002-006>008-014>016-023>028-191600-
NORTHWEST WISCONSIN

CITY           SKY/WX    TMP DP  RH WIND       PRES   REMARKS
SUPERIOR ARPT  CLOUDY    24  21  90 SE3       30.27S
ASHLAND        CLOUDY    23  20  88 S3        30.29S
HAYWARD        CLOUDY    22  19  89 S5        30.25S FOG     WCI  16
SIREN          CLOUDY    23  20  85 SE5       30.25S WCI  17
CUMBERLAND     FLURRIES  23  21  93 S7        30.25R WCI  15
RICE LAKE      CLOUDY    24  20  87 S6        30.28R WCI  16
CHETEK         CLOUDY    23  20  89 S5        30.27S WCI  17
LADYSMITH      CLOUDY    23  21  93 CALM      30.28R
EAU CLAIRE     CLOUDY    24  18  77 S5        30.28S WCI  18
MENOMONIE      CLOUDY    24  19  81 SE3       30.28S
NEW RICHMOND   CLOUDY    23  20  87 SE6       30.26S WCI  16
OSCEOLA        CLOUDY    24  19  84 SE7       30.28S WCI  15
$$

WIZ003>005-009-010-017-018-191600-
NORTH CENTRAL WISCONSIN

CITY           SKY/WX    TMP DP  RH WIND       PRES   REMARKS
MANITOWISH WTR CLOUDY    15  14  96 CALM      30.24S
ARBOR VITAE    CLOUDY    17  14  89 CALM      30.24S
WOODRUFF       CLOUDY    17  14  89 CALM      30.24S
RHINELANDER    FOG        7   6  96 CALM      30.25S VSB<1/4
EAGLE RIVER    SNOW       5   1  82 CALM      30.25S VSB 1/4
LAND O LAKES   SNOW       2  -1  86 CALM      30.26R VSB<1/4
PHILLIPS       CLOUDY    21  19  91 S5        30.24R WCI  14
TOMAHAWK       CLOUDY    15  13  91 CALM      30.27R
MEDFORD        CLOUDY    22  19  87 S3        30.25R
MERRILL        CLOUDY    15  13  92 CALM      30.27S
$$

WIZ029-030-035-036-043>047-191600-
CENTRAL WISCONSIN

CITY           SKY/WX    TMP DP  RH WIND       PRES   REMARKS
WAUSAU         CLOUDY    18  14  84 CALM      30.26S
MOSINEE        NOT AVBL
MARSHFIELD     CLOUDY    23  20  88 S3        30.26S
STEVENS POINT  CLOUDY    17  14  90 CALM      30.29S
WAUPACA        SUNNY     20  17  87 CALM      30.31S
WAUTOMA        CLOUDY    22  20  92 CALM      30.32R
WISC RAPIDS    CLOUDY    22  18  85 E3        30.30S
CAMP DOUGLAS   CLOUDY    25  25 100 CALM      30.29S
$$

WIZ011>013-019>022-031-037>040-048>050-191600-
NORTHEAST WISCONSIN

CITY           SKY/WX    TMP DP  RH WIND       PRES   REMARKS
ANTIGO         MOSUNNY   11   9  91 CALM      30.26S
SHAWANO        SUNNY     18  16  89 CALM      30.32R
OCONTO         SUNNY     19  19  98 CALM      30.32R
STURGEON BAY   FAIR      25  23  93 N6        30.32R WCI  18
GREEN BAY      SUNNY     21  18  88 CALM      30.32R
MANITOWOC      SUNNY     22  20  92 NW6       30.32R WCI  14
APPLETON       MOSUNNY   19  19 100 VRB3      30.31R
CLINTONVILLE   SUNNY     19  16  86 CALM      30.31S
OSHKOSH        SUNNY     20  17  88 W3        30.31R
$$

WIZ032>034-041-042-053>061-191600-
SOUTHWEST WISCONSIN

CITY           SKY/WX    TMP DP  RH WIND       PRES   REMARKS
LA CROSSE      CLOUDY    26  18  71 SE5       30.31R WCI  20
SPARTA         CLOUDY    24  18  77 W3        30.31R
VIROQUA        CLOUDY    23  19  85 CALM      30.27R
BOSCOBEL       MOSUNNY   27  19  72 E3        30.32R
PRAIRIE DU CHI CLOUDY    26  19  72 CALM      30.31S
PLATTEVILLE    MOSUNNY   25  20  82 CALM      30.30S
$$

WIZ056-057-062-063-064-067-068-191600-
SOUTH CENTRAL WISCONSIN

CITY           SKY/WX    TMP DP  RH WIND       PRES   REMARKS
REEDSBURG      CLOUDY    24  20  85 CALM      30.30S
BARABOO/DELLS  CLOUDY    24  20  87 CALM      30.30R
LONE ROCK      CLOUDY    29  17  61 VRB6      30.32R WCI  23
MINERAL POINT  CLOUDY    27  19  74 NE3       30.28S
MADISON        CLOUDY    25  20  81 VRB3      30.30R
MIDDLETON      CLOUDY    26  21  82 CALM      30.31S
WATERTOWN      CLOUDY    25  21  86 CALM      30.31R
MONROE         CLOUDY    27  23  86 CALM      30.28S
JANESVILLE     CLOUDY    28  21  74 NE6       30.30R WCI  22
$$

WIZ051-052-058>065-066-070>072-191600-
SOUTHEAST WISCONSIN

CITY           SKY/WX    TMP DP  RH WIND       PRES   REMARKS
MILWAUKEE      CLOUDY    27  18  69 NW9       30.31R WCI  18
WAUKESHA       CLOUDY    23  19  86 NW3       30.31R
MILWAUKEE/TIMM SUNNY     25  18  74 CALM      30.32R
RACINE         CLOUDY    28  19  69 NW7       30.32R WCI  21
BURLINGTON     CLOUDY    25  18  75 N3        30.31S
KENOSHA        CLOUDY    27  20  75 NW7       30.30R WCI  19
FOND DU LAC    SUNNY     21  17  84 W3        30.31R
SHEBOYGAN      CLOUDY    24  19  81 NW5       30.31R WCI  18
WEST BEND      CLOUDY    23  19  86 CALM      30.30R
JUNEAU         CLOUDY    24  20  85 CALM      30.31S
$$

LSZ147-162-191600-
LAKE SUPERIOR

STATION/POSITION TIME  TEMP    WIND        PRES    WAVE
                       AIR SEA DIR/SP/G            HT/PER
                 (UTC) (F)     (DEG/KT/KT) (MB)    (FT/S)
DEVILS ISLAND    1500   24     180/  3/  4 1026.9R
PORT WING        1440   23     160/  2/  3 1025.4R
SAXON HARBOR     1400   21        CALM     1025.4S
$$

LMZ867-665-643>646-191600-
LAKE MICHIGAN

STATION/POSITION TIME  TEMP    WIND        PRES    WAVE
                       AIR SEA DIR/SP/G            HT/PER
                 (UTC) (F)     (DEG/KT/KT) (MB)    (FT/S)
CHAMBERS ISLAND  1400   27     310/  2/  4 1026.1S
NORTHPORT PIER   1506   28     340/  6/  8 1026.4R
SISTER BAY       1428             CALM       N/A
ALGOMA LAKESHORE 1414          330/  6/  7   N/A
KEWAUNEE LAKESHO 1400   20     300/  2/  4 1025.1R
SHEBOYGAN LAKESH 1500   26 33  290/  7/  9 1027.3R
PORT WASHINGTON  1400   25     290/  7/  9 1026.8R
MILWAUKEE LAKESH 1500   26     280/  5/  6   N/A
KENOSHA   LAKESH 1500   27     330/  9/ 10 1026.4R
$$

TC  - TEMPERATURE IN CELSIUS
VSB - VISIBILITY IN STATUTE MILES
WCI - WIND CHILL INDEX
HX  - HEAT INDEX



USA.gov is the U.S. government's official web portal to all federal, state and local government web resources and services.